Terminal Aerodrome Forecast
Issued by NWS Raleigh/Durham, NC

Home | Current Version | Previous Version | Text Only | Print | Product List | Glossary On
Versions: 1 2 3 4 5 6 7 8 9 10 11 12 13 14 15 16 17 18 19 20
000
FTUS42 KRAH 230903 AAA
TAFGSO
TAF AMD
KGSO 230903Z 2309/2406 30009KT P6SM SKC
     FM231400 32012G20KT P6SM SKC
     FM232300 35005KT P6SM SKC=

USA.gov is the U.S. government's official web portal to all federal, state and local government web resources and services.